Погода в Русской Ляжмари

Россия / Республика Марий Эл     56°53′03″N   49°29′40″E
темп.,
°C
ветер,
м/с
пор.,
м/с
влажн.,
%
обл.,
%
осадки,
мм/ч
давл.,
гПа
погр.,
м
7 мая, пт
пт700:00+9ююз41389100 0.0 1013264
03:00+9ю51388100 0.0 1013255
06:00+11ю5127999 0.0 1013309
09:00+16ю7115692 0.0 1012700
12:00+18ююз81148100 0.1 10122382
15:00+17ю81153100 0.1 10112125
18:00+15ю61261100 0.6 1011552
21:00+11ююз51086100 1.1 1013573
8 мая, сб
сб800:00+8сз3790100 1.1 1016381
03:00+6сз3593100 1.2 1017180
06:00+7ссв2484100 0.0 1018245
09:00+11св346498 0.0 1018821
12:00+13вюв446030 0.0 1017995
15:00+15вюв346238 0.0 1016982
18:00+14вюв377282 0.1 1015293
21:00+10юв410877 0.1 1014204
9 мая, вс
вс900:00+9ююв4119021 0.0 1013213
03:00+9ююв41387100 0.0 1013254
06:00+11ююв51178100 0.0 1013330
09:00+16ююв6106275 0.0 1013669
12:00+20ю6947100 0.0 10131688
15:00+16ююз5967100 0.1 1014448
18:00+15ююв3571100 0.3 101485
21:00+14ю2271100 0.3 101512
10 мая, пн
пн1000:00+12з498998 0.0 1017265
03:00+12ссв229386 0.1 101822
06:00+12всв2591100 0.3 1019154
09:00+15сз3380100 0.3 1021505
12:00+14ссз5581100 0.0 1023462
15:00+12с4789100 0.6 1024420
18:00+11с568597 0.1 1026693
21:00+10с5879100 0.1 1028747
11 мая, вт
вт1100:00+10ссв4774100 0.0 1028611
03:00+6ссв388961 0.0 1029199
06:00+8ссв4107577 0.0 1031391
09:00+12св565021 0.0 1031794
12:00+16ссв454064 0.0 10311158
15:00+17ссв45415 0.0 10301211
18:00+15ссв355857 0.0 1030187
21:00+11всв22696 0.0 103010